Location: La Estación
(39.9833°N, 3.9500°W)
Time: 16:38:18
(UTC+00:00)

Cosmos 2219 Rocket - Pass Details

Date: 14 June 2025
Orbit: 828 x 844 km, 71.0° (Epoch: 19 July)

Event Time Altitude Azimuth Distance (km) Brightness Sun altitude
Rises 20:18:08 0° 329° (NNW) 3,378 6.8 -5.9°
Reaches altitude 10° 20:20:42 10° 322° (NW) 2,439 6.2 -6.3°
Maximum altitude 20:25:53 41° 254° (WSW) 1,190 3.4 -7.1°
Drops below altitude 10° 20:31:02 10° 186° (S) 2,424 4.3 -7.8°
Sets 20:33:35 0° 179° (S) 3,353 4.9 -8.2°
